7 * 24
多渠道服务支持
INTELSAT 3-F7 是一颗由国际通信卫星组织(INTELSAT)运营的通信卫星,于1973年发射,是INTELSAT III系列的一部分。该卫星主要用于跨大西洋的电视和电话信号传输,显著提升了国际通信能力。它搭载C波段转发器,运行在地球静止轨道,为北美和欧洲之间提供稳定的通信服务。INTELSAT 3-F7 在通信卫星发展史上具有重要意义,代表了20世纪70年代卫星通信技术的先进水平。
| 数据来源 | 国际轨道数据 |
| 星历时间: | 2025-10-28T08:13:22+0800 1天前 查看轨道信息 |
| 半长轴: | 42133.584km |
| 偏心率: | 0.0004131 |
| 轨道倾角: | 1.827° |
| 近地点辐角 | 183.963° |
| 升交点赤经 | 92.826° |
| 平近点角 | 176.235° |
| 近地点: | 35738.043km |
| 远地点: | 35772.855km |
| 周期: | 1434.506分钟 |
| 每日圈数: | 1.00383 |